User: anonymous   Login
Location: Unspecified
(0.0000°N, 0.0000°E)
Time: 10:01:57
(UTC+00:00)
Language:

ONEWEB-0141 - Orbit

View from above orbital plane
View from above orbital plane
View from above satellite
View from above satellite

Ground track
Ground track

The orbit is defined by the following mean orbital elements,

1 47287U          26145.52527157 +.00000000 +00000-0 -94108-3 0 00009
2 47287  87.8959 355.1537 0001987  93.7902 266.3453 13.12441878    08
Epoch (UTC): 25 May 2026 12:36:23
Eccentricity: 0.0001987
inclination: 87.8959°
perigee height: 1212 km
apogee height: 1215 km
right ascension of ascending node: 355.1537°
argument of perigee: 93.7902°
revolutions per day: 13.12441878
mean anomaly at epoch: 266.3453°

The dashed part of the orbit path shows where the satellite is in the earth's shadow,  

DLR